Time,TemperatureF,DewpointF,PressureIn,WindDirection,WindDirectionDegrees,WindSpeedMPH,WindSpeedGustMPH,Humidity,HourlyPrecipIn,Conditions,Clouds,dailyrainin,SoftwareType,DateUTC
2013-01-20 00:03:00,42.6,40.5,30.12,SSE,160,0.0,0.0,92,0.00,,SKC,0.00,VWS V13.01,2013-01-20 06:03:00,
2013-01-20 00:08:00,42.4,40.3,30.12,SSE,160,0.0,0.0,92,0.00,,SKC,0.00,VWS V13.01,2013-01-20 06:08:00,
2013-01-20 00:13:00,42.4,40.3,30.12,SSE,160,0.0,0.0,92,0.00,,SKC,0.00,VWS V13.01,2013-01-20 06:13:00,
2013-01-20 00:18:00,42.8,40.9,30.12,SSE,160,0.0,0.0,93,0.00,,SKC,0.00,VWS V13.01,2013-01-20 06:18:00,
2013-01-20 00:23:00,43.0,41.1,30.12,SSE,160,0.0,0.0,93,0.00,,SKC,0.00,VWS V13.01,2013-01-20 06:23:00,
2013-01-20 00:28:00,43.0,41.1,30.12,SSE,160,0.0,0.0,93,0.00,,SKC,0.00,VWS V13.01,2013-01-20 06:28:00,
2013-01-20 00:33:00,43.0,40.8,30.12,SSE,160,0.0,0.0,92,0.00,,SKC,0.00,VWS V13.01,2013-01-20 06:33:00,
2013-01-20 00:38:00,43.0,40.8,30.12,SSE,160,0.0,0.0,92,0.00,,SKC,0.00,VWS V13.01,2013-01-20 06:38:00,
2013-01-20 00:43:00,42.8,40.6,30.12,SSE,160,0.0,0.0,92,0.00,,SKC,0.00,VWS V13.01,2013-01-20 06:43:00,
2013-01-20 00:48:00,42.8,40.6,30.12,SSE,160,0.0,0.0,92,0.00,,SKC,0.00,VWS V13.01,2013-01-20 06:48:00,
2013-01-20 00:53:00,42.8,40.6,30.12,SSE,160,0.0,0.0,92,0.00,,SKC,0.00,VWS V13.01,2013-01-20 06:53:00,
2013-01-20 00:58:00,42.8,40.6,30.12,SSE,160,0.0,0.0,92,0.00,,SKC,0.00,VWS V13.01,2013-01-20 06:58:00,
2013-01-20 01:03:00,43.0,40.8,30.12,SSE,160,0.0,0.0,92,0.00,,SKC,0.00,VWS V13.01,2013-01-20 07:03:00,
2013-01-20 01:08:00,42.8,40.4,30.12,SSE,160,0.0,0.0,91,0.00,,SKC,0.00,VWS V13.01,2013-01-20 07:08:00,
2013-01-20 01:13:00,42.6,40.5,30.12,SSE,160,0.0,0.0,92,0.00,,SKC,0.00,VWS V13.01,2013-01-20 07:13:00,
2013-01-20 01:18:00,42.6,40.5,30.12,SSE,160,0.0,0.0,92,0.00,,SKC,0.00,VWS V13.01,2013-01-20 07:18:00,
2013-01-20 01:23:00,42.3,39.8,30.12,SSE,160,0.0,0.0,91,0.00,,SKC,0.00,VWS V13.01,2013-01-20 07:23:00,
2013-01-20 01:28:00,41.7,39.3,30.12,SSE,160,0.0,0.0,91,0.00,,SKC,0.00,VWS V13.01,2013-01-20 07:28:00,
2013-01-20 01:33:00,41.5,39.1,30.12,SSE,160,0.0,0.0,91,0.00,,SKC,0.00,VWS V13.01,2013-01-20 07:33:00,
2013-01-20 01:38:00,41.7,39.8,30.12,SSE,160,0.0,0.0,93,0.00,,SKC,0.00,VWS V13.01,2013-01-20 07:38:00,
2013-01-20 01:43:00,41.7,39.8,30.12,SSE,160,0.0,0.0,93,0.00,,SKC,0.00,VWS V13.01,2013-01-20 07:43:00,
2013-01-20 01:48:00,41.7,39.6,30.12,SSE,160,0.0,0.0,92,0.00,,SKC,0.00,VWS V13.01,2013-01-20 07:48:00,
2013-01-20 01:53:00,41.5,39.4,30.12,SSE,160,0.0,0.0,92,0.00,,SKC,0.00,VWS V13.01,2013-01-20 07:53:00,
2013-01-20 01:58:00,41.2,38.8,30.12,SSE,160,0.0,0.0,91,0.00,,SKC,0.00,VWS V13.01,2013-01-20 07:58:00,
2013-01-20 02:03:00,41.0,38.6,30.12,SSE,160,0.0,0.0,91,0.00,,SKC,0.00,VWS V13.01,2013-01-20 08:03:00,
2013-01-20 02:08:00,41.0,38.9,30.12,SSE,160,0.0,0.0,92,0.00,,SKC,0.00,VWS V13.01,2013-01-20 08:08:00,
2013-01-20 02:13:00,40.8,38.7,30.12,SSE,160,0.0,0.0,92,0.00,,SKC,0.00,VWS V13.01,2013-01-20 08:13:00,
2013-01-20 02:18:00,40.8,39.0,30.12,SSE,160,0.0,0.0,93,0.00,,SKC,0.00,VWS V13.01,2013-01-20 08:18:00,
2013-01-20 02:23:00,41.0,39.1,30.12,SSE,160,0.0,0.0,93,0.00,,SKC,0.00,VWS V13.01,2013-01-20 08:23:00,
2013-01-20 02:28:00,41.0,38.9,30.12,SSE,160,0.0,0.0,92,0.00,,SKC,0.00,VWS V13.01,2013-01-20 08:28:00,
2013-01-20 02:33:00,41.0,38.9,30.12,SSE,160,0.0,0.0,92,0.00,,SKC,0.00,VWS V13.01,2013-01-20 08:33:00,
2013-01-20 02:38:00,41.0,38.9,30.12,SSE,160,0.0,0.0,92,0.00,,SKC,0.00,VWS V13.01,2013-01-20 08:38:00,
2013-01-20 02:43:00,41.2,39.0,30.12,SSE,160,0.0,0.0,92,0.00,,SKC,0.00,VWS V13.01,2013-01-20 08:43:00,
2013-01-20 02:48:00,41.0,38.6,30.12,SSE,160,0.0,0.0,91,0.00,,SKC,0.00,VWS V13.01,2013-01-20 08:48:00,
2013-01-20 02:53:00,41.0,38.6,30.12,SSE,160,0.0,0.0,91,0.00,,SKC,0.00,VWS V13.01,2013-01-20 08:53:00,
2013-01-20 02:58:00,40.8,38.7,30.12,SSE,160,0.0,0.0,92,0.00,,SKC,0.00,VWS V13.01,2013-01-20 08:58:00,
2013-01-20 03:03:00,40.8,38.4,30.12,SSE,160,0.0,0.0,91,0.00,,SKC,0.00,VWS V13.01,2013-01-20 09:03:00,
2013-01-20 03:08:00,40.6,38.2,30.12,SSE,160,0.0,0.0,91,0.00,,SKC,0.00,VWS V13.01,2013-01-20 09:08:00,
2013-01-20 03:13:00,40.6,38.2,30.12,SSE,160,0.0,0.0,91,0.00,,SKC,0.00,VWS V13.01,2013-01-20 09:13:00,
2013-01-20 03:18:00,40.5,38.0,30.12,SSE,160,0.0,0.0,91,0.00,,SKC,0.00,VWS V13.01,2013-01-20 09:18:00,
2013-01-20 03:23:00,40.3,37.9,30.12,SSE,160,0.0,0.0,91,0.00,,SKC,0.00,VWS V13.01,2013-01-20 09:23:00,
2013-01-20 03:28:00,40.1,37.7,30.12,SSE,160,0.0,0.0,91,0.00,,SKC,0.00,VWS V13.01,2013-01-20 09:28:00,
2013-01-20 03:33:00,40.1,37.7,30.12,SSE,160,0.0,0.0,91,0.00,,SKC,0.00,VWS V13.01,2013-01-20 09:33:00,
2013-01-20 03:38:00,40.1,37.7,30.12,SSE,160,0.0,0.0,91,0.00,,SKC,0.00,VWS V13.01,2013-01-20 09:38:00,
2013-01-20 03:43:00,39.9,37.5,30.12,SSE,160,0.0,0.0,91,0.00,,SKC,0.00,VWS V13.01,2013-01-20 09:43:00,
2013-01-20 03:48:00,39.7,37.6,30.12,SSE,160,0.0,0.0,92,0.00,,SKC,0.00,VWS V13.01,2013-01-20 09:48:00,
2013-01-20 03:53:00,39.7,37.6,30.12,SSE,160,0.0,0.0,92,0.00,,SKC,0.00,VWS V13.01,2013-01-20 09:53:00,
2013-01-20 03:57:00,39.7,37.6,30.12,SSE,160,0.0,0.0,92,0.00,,SKC,0.00,VWS V13.01,2013-01-20 09:57:00,
2013-01-20 04:02:00,39.7,37.3,30.09,SSE,160,0.0,0.0,91,0.00,,SKC,0.00,VWS V13.01,2013-01-20 10:02:00,
2013-01-20 04:07:00,39.6,37.2,30.09,SSE,160,0.0,0.0,91,0.00,,SKC,0.00,VWS V13.01,2013-01-20 10:07:00,
2013-01-20 04:12:00,39.7,37.6,30.09,SSE,160,0.0,0.0,92,0.00,,SKC,0.00,VWS V13.01,2013-01-20 10:12:00,
2013-01-20 04:17:00,39.6,37.2,30.09,SSE,160,0.0,0.0,91,0.00,,SKC,0.00,VWS V13.01,2013-01-20 10:17:00,
2013-01-20 04:22:00,39.4,37.0,30.09,SSE,160,0.0,0.0,91,0.00,,SKC,0.00,VWS V13.01,2013-01-20 10:22:00,
2013-01-20 04:27:00,39.2,36.8,30.09,SSE,160,0.0,0.0,91,0.00,,SKC,0.00,VWS V13.01,2013-01-20 10:27:00,
2013-01-20 04:32:00,39.2,36.8,30.09,SSE,160,0.0,0.0,91,0.00,,SKC,0.00,VWS V13.01,2013-01-20 10:32:00,
2013-01-20 04:37:00,39.2,36.8,30.09,SSE,160,0.0,0.0,91,0.00,,SKC,0.00,VWS V13.01,2013-01-20 10:37:00,
2013-01-20 04:42:00,39.0,36.9,30.09,SSE,160,0.0,0.0,92,0.00,,SKC,0.00,VWS V13.01,2013-01-20 10:42:00,
2013-01-20 04:47:00,39.0,36.9,30.09,SSE,160,0.0,0.0,92,0.00,,SKC,0.00,VWS V13.01,2013-01-20 10:47:00,
2013-01-20 04:52:00,39.2,36.8,30.09,SSE,160,0.0,0.0,91,0.00,,SKC,0.00,VWS V13.01,2013-01-20 10:52:00,
2013-01-20 04:57:00,39.2,36.8,30.09,SSE,160,0.0,0.0,91,0.00,,SKC,0.00,VWS V13.01,2013-01-20 10:57:00,
2013-01-20 05:02:00,39.0,36.6,30.12,SSE,160,0.0,0.0,91,0.00,,SKC,0.00,VWS V13.01,2013-01-20 11:02:00,
2013-01-20 05:07:00,39.0,36.9,30.12,SSE,160,0.0,0.0,92,0.00,,SKC,0.00,VWS V13.01,2013-01-20 11:07:00,
2013-01-20 05:12:00,39.0,36.9,30.12,SSE,160,0.0,0.0,92,0.00,,SKC,0.00,VWS V13.01,2013-01-20 11:12:00,
2013-01-20 05:17:00,39.0,36.6,30.12,SSE,160,0.0,0.0,91,0.00,,SKC,0.00,VWS V13.01,2013-01-20 11:17:00,
2013-01-20 05:22:00,39.0,36.6,30.12,SSE,160,0.0,0.0,91,0.00,,SKC,0.00,VWS V13.01,2013-01-20 11:22:00,
2013-01-20 05:27:00,38.8,36.4,30.12,SSE,160,0.0,0.0,91,0.00,,SKC,0.00,VWS V13.01,2013-01-20 11:27:00,
2013-01-20 05:32:00,38.7,36.3,30.12,SSE,160,0.0,0.0,91,0.00,,SKC,0.00,VWS V13.01,2013-01-20 11:32:00,
2013-01-20 05:37:00,38.5,35.8,30.12,SSE,160,0.0,0.0,90,0.00,,SKC,0.00,VWS V13.01,2013-01-20 11:37:00,
2013-01-20 05:42:00,38.5,36.4,30.12,SSE,160,0.0,0.0,92,0.00,,SKC,0.00,VWS V13.01,2013-01-20 11:42:00,
2013-01-20 05:47:00,38.5,36.4,30.12,SSE,160,0.0,0.0,92,0.00,,SKC,0.00,VWS V13.01,2013-01-20 11:47:00,
2013-01-20 05:52:00,38.7,36.8,30.12,SSE,160,0.0,0.0,93,0.00,,SKC,0.00,VWS V13.01,2013-01-20 11:52:00,
2013-01-20 05:57:00,38.7,36.8,30.12,SSE,160,0.0,0.0,93,0.00,,SKC,0.00,VWS V13.01,2013-01-20 11:57:00,
2013-01-20 06:02:00,38.7,36.8,30.12,SSE,160,0.0,0.0,93,0.00,,SKC,0.00,VWS V13.01,2013-01-20 12:02:00,
2013-01-20 06:07:00,38.7,36.8,30.12,SSE,160,0.0,0.0,93,0.00,,SKC,0.00,VWS V13.01,2013-01-20 12:07:00,
2013-01-20 06:12:00,38.7,36.5,30.12,SSE,160,0.0,0.0,92,0.00,,SKC,0.00,VWS V13.01,2013-01-20 12:12:00,
2013-01-20 06:17:00,38.7,36.5,30.12,SSE,160,0.0,0.0,92,0.00,,SKC,0.00,VWS V13.01,2013-01-20 12:17:00,
2013-01-20 06:22:00,38.7,36.5,30.12,SSE,160,0.0,0.0,92,0.00,,SKC,0.00,VWS V13.01,2013-01-20 12:22:00,
2013-01-20 06:27:00,38.5,36.4,30.12,SSE,160,0.0,0.0,92,0.00,,SKC,0.00,VWS V13.01,2013-01-20 12:27:00,
2013-01-20 06:32:00,38.3,36.2,30.12,SSE,160,0.0,0.0,92,0.00,,SKC,0.00,VWS V13.01,2013-01-20 12:32:00,
2013-01-20 06:37:00,38.5,36.4,30.12,SSE,160,0.0,0.0,92,0.00,,SKC,0.00,VWS V13.01,2013-01-20 12:37:00,
2013-01-20 06:42:00,38.5,36.4,30.12,SSE,160,0.0,0.0,92,0.00,,SKC,0.00,VWS V13.01,2013-01-20 12:42:00,
2013-01-20 06:47:00,38.5,36.4,30.12,SSE,160,0.0,0.0,92,0.00,,SKC,0.00,VWS V13.01,2013-01-20 12:47:00,
2013-01-20 06:52:00,38.5,36.6,30.12,SSE,160,0.0,0.0,93,0.00,,SKC,0.00,VWS V13.01,2013-01-20 12:52:00,
2013-01-20 06:57:00,38.5,36.6,30.12,SSE,160,0.0,0.0,93,0.00,,SKC,0.00,VWS V13.01,2013-01-20 12:57:00,
2013-01-20 07:02:00,38.1,36.0,30.12,SSE,160,0.0,0.0,92,0.00,,SKC,0.00,VWS V13.01,2013-01-20 13:02:00,
2013-01-20 07:07:00,38.3,36.5,30.12,SSE,160,0.0,0.0,93,0.00,,SKC,0.00,VWS V13.01,2013-01-20 13:07:00,
2013-01-20 07:12:00,38.5,36.9,30.12,SSE,160,0.0,0.0,94,0.00,,SKC,0.00,VWS V13.01,2013-01-20 13:12:00,
2013-01-20 07:17:00,38.8,37.3,30.12,SSE,160,0.0,0.0,94,0.00,,SKC,0.00,VWS V13.01,2013-01-20 13:17:00,
2013-01-20 07:22:00,38.8,37.0,30.12,SSE,160,0.0,0.0,93,0.00,,SKC,0.00,VWS V13.01,2013-01-20 13:22:00,
2013-01-20 07:27:00,39.2,37.6,30.12,SSE,160,0.0,0.0,94,0.00,,SKC,0.00,VWS V13.01,2013-01-20 13:27:00,
2013-01-20 07:32:00,39.6,38.0,30.12,SSE,160,0.0,0.0,94,0.00,,SKC,0.00,VWS V13.01,2013-01-20 13:32:00,
2013-01-20 07:37:00,39.9,38.3,30.12,SSE,160,0.0,0.0,94,0.00,,SKC,0.00,VWS V13.01,2013-01-20 13:37:00,
2013-01-20 07:42:00,40.3,39.0,30.12,SSE,160,0.0,0.0,95,0.00,,SKC,0.00,VWS V13.01,2013-01-20 13:42:00,
2013-01-20 07:47:00,40.8,39.5,30.12,SSE,160,0.0,0.0,95,0.00,,SKC,0.00,VWS V13.01,2013-01-20 13:47:00,
2013-01-20 07:52:00,41.5,40.2,30.12,SSE,160,0.0,0.0,95,0.00,,SKC,0.00,VWS V13.01,2013-01-20 13:52:00,
2013-01-20 07:57:00,42.3,41.5,30.12,SSE,160,0.0,0.0,97,0.00,,SKC,0.00,VWS V13.01,2013-01-20 13:57:00,
2013-01-20 08:02:00,43.5,43.5,30.12,SSE,160,2.7,2.7,100,0.00,,SKC,0.00,VWS V13.01,2013-01-20 14:02:00,
2013-01-20 08:07:00,44.4,44.4,30.12,North,7,0.0,0.0,100,0.00,,SKC,0.00,VWS V13.01,2013-01-20 14:07:00,
2013-01-20 08:12:00,45.3,45.3,30.12,NNE,14,3.6,3.6,100,0.00,,SKC,0.00,VWS V13.01,2013-01-20 14:12:00,
2013-01-20 08:17:00,45.9,45.9,30.12,NNE,13,0.0,0.0,100,0.00,,SKC,0.00,VWS V13.01,2013-01-20 14:17:00,
2013-01-20 08:22:00,46.6,46.6,30.12,North,10,0.0,0.0,100,0.00,,SKC,0.00,VWS V13.01,2013-01-20 14:22:00,
2013-01-20 08:27:00,47.1,47.1,30.12,North,10,0.0,0.0,100,0.00,,SKC,0.00,VWS V13.01,2013-01-20 14:27:00,
2013-01-20 08:32:00,47.7,47.7,30.12,NNE,28,0.0,0.0,100,0.00,,SKC,0.00,VWS V13.01,2013-01-20 14:32:00,
2013-01-20 08:37:00,48.4,48.4,30.12,NNE,28,0.0,0.0,100,0.00,,SKC,0.00,VWS V13.01,2013-01-20 14:37:00,
2013-01-20 08:42:00,49.1,49.1,30.12,North,5,0.0,0.0,100,0.00,,SKC,0.00,VWS V13.01,2013-01-20 14:42:00,
2013-01-20 08:47:00,49.8,49.8,30.12,NW,319,2.2,2.2,100,0.00,,SKC,0.00,VWS V13.01,2013-01-20 14:47:00,
2013-01-20 08:52:00,50.7,50.7,30.12,North,351,0.0,0.0,100,0.00,,SKC,0.00,VWS V13.01,2013-01-20 14:52:00,
2013-01-20 08:57:00,51.4,51.4,30.12,NNW,343,3.1,3.1,100,0.00,,SKC,0.00,VWS V13.01,2013-01-20 14:57:00,
2013-01-20 09:02:00,52.0,49.4,30.15,North,354,4.5,4.5,91,0.00,,SKC,0.00,VWS V13.01,2013-01-20 15:02:00,
2013-01-20 09:07:00,52.5,49.4,30.15,NNW,347,0.0,0.0,89,0.00,,SKC,0.00,VWS V13.01,2013-01-20 15:07:00,
2013-01-20 09:12:00,53.2,49.5,30.15,North,4,3.1,3.1,87,0.00,,SKC,0.00,VWS V13.01,2013-01-20 15:12:00,
2013-01-20 09:17:00,53.8,49.1,30.15,NNE,28,3.6,5.4,84,0.00,,SKC,0.00,VWS V13.01,2013-01-20 15:17:00,
2013-01-20 09:22:00,54.5,48.8,30.15,North,354,2.7,2.7,81,0.00,,SKC,0.00,VWS V13.01,2013-01-20 15:22:00,
2013-01-20 09:27:00,55.2,48.5,30.15,NNE,16,3.6,3.6,78,0.00,,SKC,0.00,VWS V13.01,2013-01-20 15:27:00,
2013-01-20 09:32:00,55.8,48.7,30.12,NNE,18,4.0,4.0,77,0.00,,SKC,0.00,VWS V13.01,2013-01-20 15:32:00,
2013-01-20 09:37:00,56.5,49.0,30.12,North,353,3.1,3.1,76,0.00,,SKC,0.00,VWS V13.01,2013-01-20 15:37:00,
2013-01-20 09:42:00,57.0,48.5,30.12,NNW,327,0.0,2.7,73,0.00,,SKC,0.00,VWS V13.01,2013-01-20 15:42:00,
2013-01-20 09:47:00,57.7,48.0,30.12,NE,54,4.0,4.0,70,0.00,,SKC,0.00,VWS V13.01,2013-01-20 15:47:00,
2013-01-20 09:52:00,57.9,47.0,30.12,ENE,57,2.7,5.8,67,0.00,,SKC,0.00,VWS V13.01,2013-01-20 15:52:00,
2013-01-20 09:57:00,58.5,47.6,30.12,NNE,17,3.1,3.6,67,0.00,,SKC,0.00,VWS V13.01,2013-01-20 15:57:00,
2013-01-20 10:02:00,59.0,48.1,30.12,East,79,3.1,3.1,67,0.00,,SKC,0.00,VWS V13.01,2013-01-20 16:02:00,
2013-01-20 10:07:00,59.7,48.4,30.12,NNE,28,2.7,5.4,66,0.00,,SKC,0.08,VWS V13.01,2013-01-20 16:07:00,
2013-01-20 10:12:00,60.3,48.9,30.12,NE,48,3.1,3.1,66,0.00,,SKC,0.00,VWS V13.01,2013-01-20 16:12:00,
2013-01-20 10:17:00,60.8,49.0,30.12,NNW,335,3.6,3.6,65,0.00,,SKC,0.00,VWS V13.01,2013-01-20 16:17:00,
2013-01-20 10:22:00,61.5,49.7,30.12,East,98,2.2,2.2,65,0.00,,SKC,0.00,VWS V13.01,2013-01-20 16:22:00,
2013-01-20 10:27:00,61.9,50.0,30.12,ENE,59,3.6,3.6,65,0.00,,SKC,0.00,VWS V13.01,2013-01-20 16:27:00,
2013-01-20 10:32:00,62.2,50.3,30.12,ENE,68,3.6,3.6,65,0.00,,SKC,0.00,VWS V13.01,2013-01-20 16:32:00,
2013-01-20 10:37:00,62.4,50.5,30.12,NE,37,5.8,6.7,65,0.00,,SKC,0.00,VWS V13.01,2013-01-20 16:37:00,
2013-01-20 10:42:00,62.6,50.3,30.12,East,92,3.6,3.6,64,0.00,,SKC,0.00,VWS V13.01,2013-01-20 16:42:00,
2013-01-20 10:47:00,62.8,50.4,30.12,NW,305,0.0,3.1,64,0.00,,SKC,0.00,VWS V13.01,2013-01-20 16:47:00,
2013-01-20 10:52:00,63.1,50.8,30.12,NE,47,2.7,3.1,64,0.00,,SKC,0.00,VWS V13.01,2013-01-20 16:52:00,
2013-01-20 10:57:00,63.1,50.8,30.12,ENE,69,3.6,3.6,64,0.00,,SKC,0.00,VWS V13.01,2013-01-20 16:57:00,
2013-01-20 11:02:00,63.9,51.5,30.12,ESE,121,3.1,3.1,64,0.00,,SKC,0.00,VWS V13.01,2013-01-20 17:02:00,
2013-01-20 11:07:00,64.6,52.1,30.12,East,86,3.6,3.6,64,0.00,,SKC,0.00,VWS V13.01,2013-01-20 17:07:00,
2013-01-20 11:12:00,64.8,52.3,30.12,NE,48,2.2,2.7,64,0.00,,SKC,0.00,VWS V13.01,2013-01-20 17:12:00,
2013-01-20 11:17:00,65.5,53.0,30.12,SW,224,4.0,5.8,64,0.00,,SKC,0.00,VWS V13.01,2013-01-20 17:17:00,
2013-01-20 11:22:00,65.7,53.2,30.12,SE,125,2.7,3.6,64,0.00,,SKC,0.00,VWS V13.01,2013-01-20 17:22:00,
2013-01-20 11:27:00,65.8,53.3,30.12,SSE,149,4.0,5.8,64,0.00,,SKC,0.00,VWS V13.01,2013-01-20 17:27:00,
2013-01-20 11:32:00,65.8,53.3,30.09,SSE,164,3.1,3.1,64,0.00,,SKC,0.00,VWS V13.01,2013-01-20 17:32:00,
2013-01-20 11:37:00,65.7,53.2,30.09,SSE,151,5.4,7.6,64,0.00,,SKC,0.00,VWS V13.01,2013-01-20 17:37:00,
2013-01-20 11:42:00,66.0,53.5,30.09,South,169,4.9,4.9,64,0.00,,SKC,0.00,VWS V13.01,2013-01-20 17:42:00,
2013-01-20 11:47:00,66.2,53.2,30.09,South,186,5.4,5.4,63,0.00,,SKC,0.00,VWS V13.01,2013-01-20 17:47:00,
2013-01-20 11:52:00,66.2,53.2,30.09,South,174,3.1,4.0,63,0.00,,SKC,0.00,VWS V13.01,2013-01-20 17:52:00,
2013-01-20 11:57:00,65.8,53.3,30.09,East,82,2.2,3.1,64,0.00,,SKC,0.00,VWS V13.01,2013-01-20 17:57:00,
2013-01-20 12:02:00,65.7,51.9,30.09,South,181,7.2,7.2,61,0.00,,SKC,0.00,VWS V13.01,2013-01-20 18:02:00,
2013-01-20 12:07:00,65.7,51.9,30.09,SSE,156,5.8,5.8,61,0.00,,SKC,0.00,VWS V13.01,2013-01-20 18:07:00,
2013-01-20 12:12:00,66.0,53.5,30.09,South,175,4.0,5.8,64,0.00,,SKC,0.00,VWS V13.01,2013-01-20 18:12:00,
2013-01-20 12:17:00,66.4,53.4,30.06,SSE,160,4.0,5.4,63,0.00,,SKC,0.00,VWS V13.01,2013-01-20 18:17:00,
2013-01-20 12:22:00,66.4,52.5,30.06,SSW,202,4.9,4.9,61,0.00,,SKC,0.00,VWS V13.01,2013-01-20 18:22:00,
2013-01-20 12:27:00,66.4,53.4,30.06,South,178,6.3,6.3,63,0.00,,SKC,0.00,VWS V13.01,2013-01-20 18:27:00,
2013-01-20 12:32:00,66.4,53.4,30.06,SSE,159,6.3,6.3,63,0.00,,SKC,0.00,VWS V13.01,2013-01-20 18:32:00,
2013-01-20 12:37:00,66.4,53.4,30.06,South,174,0.0,6.3,63,0.00,,SKC,0.00,VWS V13.01,2013-01-20 18:37:00,
2013-01-20 12:42:00,66.4,53.4,30.06,SSE,157,6.3,6.3,63,0.00,,SKC,0.00,VWS V13.01,2013-01-20 18:42:00,
2013-01-20 12:47:00,66.4,52.5,30.06,South,175,6.3,6.3,61,0.00,,SKC,0.00,VWS V13.01,2013-01-20 18:47:00,
2013-01-20 12:52:00,66.4,52.5,30.06,South,187,4.0,6.3,61,0.00,,SKC,0.00,VWS V13.01,2013-01-20 18:52:00,
2013-01-20 12:57:00,66.6,52.7,30.06,SE,139,5.4,6.3,61,0.00,,SKC,0.00,VWS V13.01,2013-01-20 18:57:00,
2013-01-20 13:02:00,66.4,52.5,30.03,SSE,167,7.6,7.6,61,0.00,,SKC,0.00,VWS V13.01,2013-01-20 19:02:00,
2013-01-20 13:07:00,66.4,52.5,30.03,South,176,5.4,6.7,61,0.00,,SKC,0.00,VWS V13.01,2013-01-20 19:07:00,
2013-01-20 13:12:00,66.4,52.5,30.03,South,184,2.7,2.7,61,0.00,,SKC,0.00,VWS V13.01,2013-01-20 19:12:00,
2013-01-20 13:17:00,66.4,52.5,30.03,SSE,154,4.9,6.3,61,0.00,,SKC,0.00,VWS V13.01,2013-01-20 19:17:00,
2013-01-20 13:22:00,66.4,52.5,30.03,SSE,158,4.0,4.0,61,0.00,,SKC,0.00,VWS V13.01,2013-01-20 19:22:00,
2013-01-20 13:27:00,66.2,52.4,30.03,SSW,203,5.8,6.3,61,0.00,,SKC,0.00,VWS V13.01,2013-01-20 19:27:00,
2013-01-20 13:32:00,66.2,52.4,30.03,South,189,4.5,6.3,61,0.00,,SKC,0.00,VWS V13.01,2013-01-20 19:32:00,
2013-01-20 13:37:00,66.4,52.5,30.03,SSW,210,3.6,3.6,61,0.00,,SKC,0.00,VWS V13.01,2013-01-20 19:37:00,
2013-01-20 13:42:00,66.4,52.5,30.03,East,99,4.9,5.8,61,0.00,,SKC,0.00,VWS V13.01,2013-01-20 19:42:00,
2013-01-20 13:47:00,66.0,52.2,30.03,SSE,160,5.4,5.4,61,0.00,,SKC,0.00,VWS V13.01,2013-01-20 19:47:00,
2013-01-20 13:52:00,65.8,52.0,30.03,SSE,162,4.9,4.9,61,0.00,,SKC,0.00,VWS V13.01,2013-01-20 19:52:00,
2013-01-20 13:57:00,66.0,52.2,30.03,SSW,199,6.3,6.3,61,0.00,,SKC,0.00,VWS V13.01,2013-01-20 19:57:00,
2013-01-20 14:02:00,65.8,52.0,30.03,South,169,8.1,8.1,61,0.00,,SKC,0.00,VWS V13.01,2013-01-20 20:02:00,
2013-01-20 14:07:00,65.8,52.0,30.03,SE,129,5.8,5.8,61,0.00,,SKC,0.00,VWS V13.01,2013-01-20 20:07:00,
2013-01-20 14:12:00,65.7,51.9,30.03,SSW,195,4.0,8.1,61,0.00,,SKC,0.00,VWS V13.01,2013-01-20 20:12:00,
2013-01-20 14:17:00,65.7,51.9,30.00,SSE,162,6.3,8.7,61,0.00,,SKC,0.00,VWS V13.01,2013-01-20 20:17:00,
2013-01-20 14:22:00,65.5,51.7,30.00,South,174,4.0,4.9,61,0.00,,SKC,0.00,VWS V13.01,2013-01-20 20:22:00,
2013-01-20 14:27:00,65.5,51.7,30.00,SSE,156,5.8,6.3,61,0.00,,SKC,0.00,VWS V13.01,2013-01-20 20:27:00,
2013-01-20 14:32:00,65.5,51.7,30.00,South,181,4.9,5.8,61,0.00,,SKC,0.00,VWS V13.01,2013-01-20 20:32:00,
2013-01-20 14:37:00,65.3,51.5,30.00,SSE,164,2.2,4.5,61,0.00,,SKC,0.00,VWS V13.01,2013-01-20 20:37:00,
2013-01-20 14:42:00,65.5,51.7,30.00,SSE,163,3.6,4.9,61,0.00,,SKC,0.00,VWS V13.01,2013-01-20 20:42:00,
2013-01-20 14:47:00,65.3,51.5,30.00,SE,143,4.0,4.0,61,0.00,,SKC,0.00,VWS V13.01,2013-01-20 20:47:00,
2013-01-20 14:52:00,65.1,51.3,30.00,SSW,200,3.1,3.6,61,0.00,,SKC,0.00,VWS V13.01,2013-01-20 20:52:00,
2013-01-20 14:57:00,64.9,51.2,30.00,SW,216,3.1,3.1,61,0.00,,SKC,0.00,VWS V13.01,2013-01-20 20:57:00,
2013-01-20 15:02:00,64.8,51.0,30.00,South,189,4.9,5.8,61,0.00,,SKC,0.00,VWS V13.01,2013-01-20 21:02:00,
2013-01-20 15:07:00,64.6,50.8,30.00,SW,215,5.4,5.4,61,0.00,,SKC,0.00,VWS V13.01,2013-01-20 21:07:00,
2013-01-20 15:12:00,64.4,50.7,30.00,SSW,203,3.1,4.0,61,0.00,,SKC,0.00,VWS V13.01,2013-01-20 21:12:00,
2013-01-20 15:17:00,64.2,50.9,30.00,SSW,200,2.7,4.0,62,0.00,,SKC,0.00,VWS V13.01,2013-01-20 21:17:00,
2013-01-20 15:22:00,64.0,50.8,30.00,SSE,163,5.4,5.4,62,0.00,,SKC,0.00,VWS V13.01,2013-01-20 21:22:00,
2013-01-20 15:27:00,63.7,50.4,30.00,SE,144,3.6,3.6,62,0.00,,SKC,0.00,VWS V13.01,2013-01-20 21:27:00,
2013-01-20 15:32:00,63.5,50.3,30.00,SSE,158,3.6,4.0,62,0.00,,SKC,0.00,VWS V13.01,2013-01-20 21:32:00,
2013-01-20 15:38:00,63.3,50.1,30.00,South,186,4.0,5.4,62,0.00,,SKC,0.00,VWS V13.01,2013-01-20 21:38:00,
2013-01-20 15:43:00,63.1,49.9,30.00,SW,227,6.3,6.3,62,0.00,,SKC,0.00,VWS V13.01,2013-01-20 21:43:00,
2013-01-20 15:48:00,62.8,49.6,30.00,SSE,165,4.0,5.4,62,0.00,,SKC,0.00,VWS V13.01,2013-01-20 21:48:00,
2013-01-20 15:53:00,62.4,49.2,30.00,South,189,5.4,5.4,62,0.00,,SKC,0.00,VWS V13.01,2013-01-20 21:53:00,
2013-01-20 15:58:00,62.2,49.1,30.00,SSW,205,3.6,3.6,62,0.00,,SKC,0.00,VWS V13.01,2013-01-20 21:58:00,
2013-01-20 16:03:00,62.1,48.9,30.00,SW,221,4.9,5.4,62,0.00,,SKC,0.00,VWS V13.01,2013-01-20 22:03:00,
2013-01-20 16:08:00,61.9,48.7,30.00,SSW,213,7.6,7.6,62,0.00,,SKC,0.00,VWS V13.01,2013-01-20 22:08:00,
2013-01-20 16:13:00,61.7,48.6,30.00,South,173,0.0,3.6,62,0.00,,SKC,0.00,VWS V13.01,2013-01-20 22:13:00,
2013-01-20 16:18:00,61.5,48.4,30.00,SSW,207,2.2,5.8,62,0.00,,SKC,0.00,VWS V13.01,2013-01-20 22:18:00,
2013-01-20 16:23:00,61.3,48.2,30.00,SW,226,0.0,0.0,62,0.00,,SKC,0.00,VWS V13.01,2013-01-20 22:23:00,
2013-01-20 16:28:00,61.0,47.9,30.00,SW,231,3.6,3.6,62,0.00,,SKC,0.00,VWS V13.01,2013-01-20 22:28:00,
2013-01-20 16:33:00,60.6,48.0,30.00,SW,215,4.9,6.3,63,0.00,,SKC,0.00,VWS V13.01,2013-01-20 22:33:00,
2013-01-20 16:38:00,60.4,47.8,30.00,SW,225,5.8,5.8,63,0.00,,SKC,0.00,VWS V13.01,2013-01-20 22:38:00,
2013-01-20 16:43:00,60.1,47.5,30.00,SW,221,2.7,3.6,63,0.00,,SKC,0.00,VWS V13.01,2013-01-20 22:43:00,
2013-01-20 16:48:00,59.9,48.1,30.00,SW,220,3.1,4.0,65,0.00,,SKC,0.00,VWS V13.01,2013-01-20 22:48:00,
2013-01-20 16:53:00,59.5,47.8,30.00,SW,214,2.7,2.7,65,0.00,,SKC,0.00,VWS V13.01,2013-01-20 22:53:00,
2013-01-20 16:58:00,59.4,47.6,30.00,SSW,210,4.9,4.9,65,0.00,,SKC,0.00,VWS V13.01,2013-01-20 22:58:00,
2013-01-20 17:03:00,59.0,47.3,30.00,SW,235,3.1,4.0,65,0.00,,SKC,0.00,VWS V13.01,2013-01-20 23:03:00,
2013-01-20 17:08:00,58.8,47.1,30.00,SW,225,3.6,3.6,65,0.00,,SKC,0.00,VWS V13.01,2013-01-20 23:08:00,
2013-01-20 17:13:00,58.5,46.8,30.00,SW,216,0.0,0.0,65,0.00,,SKC,0.00,VWS V13.01,2013-01-20 23:13:00,
2013-01-20 17:18:00,58.1,46.8,30.00,SW,218,0.0,0.0,66,0.00,,SKC,0.00,VWS V13.01,2013-01-20 23:18:00,
2013-01-20 17:23:00,57.9,46.6,30.00,WSW,257,0.0,0.0,66,0.00,,SKC,0.00,VWS V13.01,2013-01-20 23:23:00,
2013-01-20 17:28:00,57.6,46.7,30.00,WSW,248,0.0,0.0,67,0.00,,SKC,0.00,VWS V13.01,2013-01-20 23:28:00,
2013-01-20 17:33:00,57.2,46.8,30.00,SW,231,0.0,0.0,68,0.00,,SKC,0.00,VWS V13.01,2013-01-20 23:33:00,
2013-01-20 17:38:00,56.7,46.6,30.00,West,266,0.0,0.0,69,0.00,,SKC,0.00,VWS V13.01,2013-01-20 23:38:00,
2013-01-20 17:43:00,56.3,46.7,30.00,West,266,0.0,0.0,70,0.00,,SKC,0.00,VWS V13.01,2013-01-20 23:43:00,
2013-01-20 17:48:00,55.8,46.1,30.00,West,266,0.0,0.0,70,0.00,,SKC,0.00,VWS V13.01,2013-01-20 23:48:00,
2013-01-20 17:53:00,55.2,47.5,30.00,West,266,0.0,0.0,75,0.00,,SKC,0.00,VWS V13.01,2013-01-20 23:53:00,
2013-01-20 17:58:00,54.7,48.0,30.00,West,266,0.0,0.0,78,0.00,,SKC,0.00,VWS V13.01,2013-01-20 23:58:00,
2013-01-20 18:03:00,54.3,47.6,30.00,West,266,0.0,0.0,78,0.00,,SKC,0.00,VWS V13.01,2013-01-21 00:03:00,
2013-01-20 18:08:00,54.0,47.6,30.00,West,266,0.0,0.0,79,0.00,,SKC,0.00,VWS V13.01,2013-01-21 00:08:00,
2013-01-20 18:13:00,53.8,47.4,30.00,West,266,0.0,0.0,79,0.00,,SKC,0.00,VWS V13.01,2013-01-21 00:13:00,
2013-01-20 18:18:00,53.4,47.1,30.00,West,266,0.0,0.0,79,0.00,,SKC,0.00,VWS V13.01,2013-01-21 00:18:00,
2013-01-20 18:23:00,53.1,47.1,30.00,West,266,0.0,0.0,80,0.00,,SKC,0.00,VWS V13.01,2013-01-21 00:23:00,
2013-01-20 18:28:00,52.7,47.4,30.00,West,266,0.0,0.0,82,0.00,,SKC,0.00,VWS V13.01,2013-01-21 00:28:00,
2013-01-20 18:33:00,52.5,47.5,30.00,West,266,0.0,0.0,83,0.00,,SKC,0.00,VWS V13.01,2013-01-21 00:33:00,
2013-01-20 18:38:00,52.3,47.3,30.00,West,266,0.0,0.0,83,0.00,,SKC,0.00,VWS V13.01,2013-01-21 00:38:00,
2013-01-20 18:43:00,52.0,46.7,30.00,West,266,0.0,0.0,82,0.00,,SKC,0.00,VWS V13.01,2013-01-21 00:43:00,
2013-01-20 18:48:00,51.6,46.6,30.00,West,266,0.0,0.0,83,0.00,,SKC,0.00,VWS V13.01,2013-01-21 00:48:00,
2013-01-20 18:53:00,51.6,47.3,30.00,West,266,0.0,0.0,85,0.00,,SKC,0.00,VWS V13.01,2013-01-21 00:53:00,
2013-01-20 18:58:00,51.4,46.8,30.00,West,266,0.0,0.0,84,0.00,,SKC,0.00,VWS V13.01,2013-01-21 00:58:00,
2013-01-20 19:03:00,51.1,46.4,30.03,West,266,0.0,0.0,84,0.00,,SKC,0.00,VWS V13.01,2013-01-21 01:03:00,
2013-01-20 19:08:00,50.7,46.1,30.03,West,266,0.0,0.0,84,0.00,,SKC,0.00,VWS V13.01,2013-01-21 01:08:00,
2013-01-20 19:13:00,50.7,46.4,30.03,West,266,0.0,0.0,85,0.00,,SKC,0.00,VWS V13.01,2013-01-21 01:13:00,
2013-01-20 19:18:00,50.5,46.2,30.03,West,266,0.0,0.0,85,0.00,,SKC,0.00,VWS V13.01,2013-01-21 01:18:00,
2013-01-20 19:23:00,50.4,46.0,30.03,West,266,0.0,0.0,85,0.00,,SKC,0.00,VWS V13.01,2013-01-21 01:23:00,
2013-01-20 19:28:00,50.0,45.4,30.03,West,266,0.0,0.0,84,0.00,,SKC,0.00,VWS V13.01,2013-01-21 01:28:00,
2013-01-20 19:33:00,49.6,45.3,30.03,West,266,0.0,0.0,85,0.00,,SKC,0.00,VWS V13.01,2013-01-21 01:33:00,
2013-01-20 19:38:00,49.6,45.6,30.03,West,266,0.0,0.0,86,0.00,,SKC,0.00,VWS V13.01,2013-01-21 01:38:00,
2013-01-20 19:43:00,49.6,45.9,30.03,West,266,0.0,0.0,87,0.00,,SKC,0.00,VWS V13.01,2013-01-21 01:43:00,
2013-01-20 19:48:00,49.5,46.1,30.03,West,266,0.0,0.0,88,0.00,,SKC,0.00,VWS V13.01,2013-01-21 01:48:00,
2013-01-20 19:53:00,49.5,46.1,30.03,West,266,0.0,0.0,88,0.00,,SKC,0.00,VWS V13.01,2013-01-21 01:53:00,
2013-01-20 19:58:00,49.3,45.6,30.03,West,266,0.0,0.0,87,0.00,,SKC,0.00,VWS V13.01,2013-01-21 01:58:00,
2013-01-20 20:03:00,49.1,45.4,30.03,West,266,0.0,0.0,87,0.00,,SKC,0.00,VWS V13.01,2013-01-21 02:03:00,
2013-01-20 20:08:00,49.1,45.4,30.03,West,266,0.0,0.0,87,0.00,,SKC,0.00,VWS V13.01,2013-01-21 02:08:00,
2013-01-20 20:13:00,48.9,45.2,30.03,West,266,0.0,0.0,87,0.00,,SKC,0.00,VWS V13.01,2013-01-21 02:13:00,
2013-01-20 20:18:00,48.7,45.0,30.03,West,266,0.0,0.0,87,0.00,,SKC,0.00,VWS V13.01,2013-01-21 02:18:00,
2013-01-20 20:23:00,48.6,44.9,30.03,West,266,0.0,0.0,87,0.00,,SKC,0.00,VWS V13.01,2013-01-21 02:23:00,
2013-01-20 20:28:00,48.6,45.2,30.03,West,266,0.0,0.0,88,0.00,,SKC,0.00,VWS V13.01,2013-01-21 02:28:00,
2013-01-20 20:33:00,48.4,45.0,30.03,West,266,0.0,0.0,88,0.00,,SKC,0.00,VWS V13.01,2013-01-21 02:33:00,
2013-01-20 20:38:00,48.2,44.8,30.03,West,266,0.0,0.0,88,0.00,,SKC,0.00,VWS V13.01,2013-01-21 02:38:00,
2013-01-20 20:43:00,48.2,44.8,30.03,West,266,0.0,0.0,88,0.00,,SKC,0.00,VWS V13.01,2013-01-21 02:43:00,
2013-01-20 20:48:00,48.0,44.6,30.03,West,266,0.0,0.0,88,0.00,,SKC,0.00,VWS V13.01,2013-01-21 02:48:00,
2013-01-20 20:53:00,47.8,44.5,30.03,West,266,0.0,0.0,88,0.00,,SKC,0.00,VWS V13.01,2013-01-21 02:53:00,
2013-01-20 20:58:00,47.5,44.1,30.03,West,266,0.0,0.0,88,0.00,,SKC,0.00,VWS V13.01,2013-01-21 02:58:00,
2013-01-20 21:03:00,47.3,43.9,30.03,West,266,0.0,0.0,88,0.00,,SKC,0.00,VWS V13.01,2013-01-21 03:03:00,
2013-01-20 21:08:00,47.1,43.8,30.03,West,266,0.0,0.0,88,0.00,,SKC,0.00,VWS V13.01,2013-01-21 03:08:00,
2013-01-20 21:13:00,46.9,43.6,30.03,West,266,0.0,0.0,88,0.00,,SKC,0.00,VWS V13.01,2013-01-21 03:13:00,
2013-01-20 21:18:00,46.6,43.2,30.03,West,266,0.0,0.0,88,0.00,,SKC,0.00,VWS V13.01,2013-01-21 03:18:00,
2013-01-20 21:23:00,46.8,43.7,30.03,West,266,0.0,0.0,89,0.00,,SKC,0.00,VWS V13.01,2013-01-21 03:23:00,
2013-01-20 21:28:00,46.8,44.0,30.03,West,266,0.0,0.0,90,0.00,,SKC,0.00,VWS V13.01,2013-01-21 03:28:00,
2013-01-20 21:33:00,46.6,43.5,30.06,West,266,0.0,0.0,89,0.00,,SKC,0.00,VWS V13.01,2013-01-21 03:33:00,
2013-01-20 21:38:00,46.4,43.3,30.06,West,266,0.0,0.0,89,0.00,,SKC,0.00,VWS V13.01,2013-01-21 03:38:00,
2013-01-20 21:43:00,46.2,43.5,30.06,West,266,0.0,0.0,90,0.00,,SKC,0.00,VWS V13.01,2013-01-21 03:43:00,
2013-01-20 21:48:00,46.2,43.2,30.06,West,266,0.0,0.0,89,0.00,,SKC,0.00,VWS V13.01,2013-01-21 03:48:00,
2013-01-20 21:53:00,46.0,43.0,30.06,West,266,0.0,0.0,89,0.00,,SKC,0.00,VWS V13.01,2013-01-21 03:53:00,
2013-01-20 21:58:00,46.0,43.3,30.06,West,266,0.0,0.0,90,0.00,,SKC,0.00,VWS V13.01,2013-01-21 03:58:00,
2013-01-20 22:03:00,46.0,43.0,30.06,West,266,0.0,0.0,89,0.00,,SKC,0.00,VWS V13.01,2013-01-21 04:03:00,
2013-01-20 22:08:00,46.0,43.0,30.06,West,266,0.0,0.0,89,0.00,,SKC,0.00,VWS V13.01,2013-01-21 04:08:00,
2013-01-20 22:13:00,45.9,42.8,30.06,West,266,0.0,0.0,89,0.00,,SKC,0.00,VWS V13.01,2013-01-21 04:13:00,
2013-01-20 22:18:00,45.5,42.5,30.06,West,266,0.0,0.0,89,0.00,,SKC,0.00,VWS V13.01,2013-01-21 04:18:00,
2013-01-20 22:23:00,45.1,42.1,30.06,West,266,0.0,0.0,89,0.00,,SKC,0.00,VWS V13.01,2013-01-21 04:23:00,
2013-01-20 22:28:00,45.3,42.6,30.06,West,266,0.0,0.0,90,0.00,,SKC,0.00,VWS V13.01,2013-01-21 04:28:00,
2013-01-20 22:33:00,45.3,42.6,30.03,West,266,0.0,0.0,90,0.00,,SKC,0.00,VWS V13.01,2013-01-21 04:33:00,
2013-01-20 22:38:00,45.3,42.6,30.03,West,266,0.0,0.0,90,0.00,,SKC,0.00,VWS V13.01,2013-01-21 04:38:00,
2013-01-20 22:43:00,45.3,42.6,30.03,West,266,0.0,0.0,90,0.00,,SKC,0.00,VWS V13.01,2013-01-21 04:43:00,
2013-01-20 22:48:00,45.1,42.4,30.03,West,266,0.0,0.0,90,0.00,,SKC,0.00,VWS V13.01,2013-01-21 04:48:00,
2013-01-20 22:53:00,45.3,42.6,30.03,West,266,0.0,0.0,90,0.00,,SKC,0.00,VWS V13.01,2013-01-21 04:53:00,
2013-01-20 22:58:00,45.1,42.4,30.03,West,266,0.0,0.0,90,0.00,,SKC,0.00,VWS V13.01,2013-01-21 04:58:00,
2013-01-20 23:00:00,45.1,42.4,30.03,West,266,0.0,0.0,90,0.00,,SKC,0.00,VWS V13.01,2013-01-21 05:00:00,
2013-01-20 23:01:00,45.0,42.2,30.03,West,266,0.0,0.0,90,0.00,,SKC,0.00,VWS V13.01,2013-01-21 05:01:00,
2013-01-20 23:06:00,44.8,41.7,30.03,West,266,0.0,0.0,89,0.00,,SKC,0.00,VWS V13.01,2013-01-21 05:06:00,
2013-01-20 23:11:00,44.6,41.8,30.03,West,266,0.0,0.0,90,0.00,,SKC,0.00,VWS V13.01,2013-01-21 05:11:00,
2013-01-20 23:17:00,44.6,41.8,30.03,West,266,0.0,0.0,90,0.00,,SKC,0.00,VWS V13.01,2013-01-21 05:17:00,
2013-01-20 23:22:00,44.4,42.0,30.03,West,266,0.0,0.0,91,0.00,,SKC,0.00,VWS V13.01,2013-01-21 05:22:00,
2013-01-20 23:27:00,44.2,41.5,30.03,West,266,0.0,0.0,90,0.00,,SKC,0.00,VWS V13.01,2013-01-21 05:27:00,
2013-01-20 23:32:00,44.1,41.3,30.03,West,266,0.0,0.0,90,0.00,,SKC,0.00,VWS V13.01,2013-01-21 05:32:00,
2013-01-20 23:37:00,44.1,41.6,30.03,West,266,0.0,0.0,91,0.00,,SKC,0.00,VWS V13.01,2013-01-21 05:37:00,
2013-01-20 23:42:00,44.1,41.6,30.03,West,266,0.0,0.0,91,0.00,,SKC,0.00,VWS V13.01,2013-01-21 05:42:00,
2013-01-20 23:47:00,44.1,41.6,30.03,West,266,0.0,0.0,91,0.00,,SKC,0.00,VWS V13.01,2013-01-21 05:47:00,
2013-01-20 23:52:00,44.1,41.6,30.03,West,266,0.0,0.0,91,0.00,,SKC,0.00,VWS V13.01,2013-01-21 05:52:00,
2013-01-20 23:57:00,44.1,41.6,30.03,West,266,0.0,0.0,91,0.00,,SKC,0.00,VWS V13.01,2013-01-21 05:57:00,